[[{"header":{"parameterUnit":"m.s-1","parameterCategory":1,"la1":30.2991,"la2":30.254,"lo1":-89.0895,"lo2":-89.0444,"dy":0.0017,"dx":0.0017,"nx":28,"ny":28,"refTime":"2023-10-06T09:00:00:Z","depth":0,"parameterNumber":2,"parameterNumberName":"U-component_of_WINDS"},"data":[0,0,0,0,0,0,0,0,0,0,0,0,0,0,0,0,0,0,0,0,0,0,0,0,0,0,0,0,0,0,0,0,0,0,0,0,0,0,0,0,0,0,0,0,0,0,0,0,0,0,0,0,0,0,0,0,0,0,0.0061,0.0062,0,0.0089,0.0089,0.0089,0.0083,0.0082,0.0082,0.0081,0.011,0.0111,0.0112,0,0,0,0,0,0,0,0,0,0,0,0,0,0.0003,0.0004,0.0061,0.0062,0.0062,0.0089,0.0089,0.0089,0.0083,0.0082,0.0082,0.0081,0.0109,0.0111,0.0112,0,0,0,0,0,0,0,0,0,0,0,0,0,0.0029,0.0004,0.0061,0.0062,0.0062,0.0089,0.0089,0.009,0.0083,0.0082,0.0082,0.0081,0.0109,0.011,0.0112,0.0139,0,0,0.0118,0.0119,0,0,0,0,0,0,0,0,0.0028,0.0031,0.0062,0.0062,0.0063,0.0082,0.0079,0.0106,0.0083,0.0075,0.0081,0.0081,0.0101,0.0103,0.011,0.0141,0.0142,0.0118,0.0119,0.012,0.0121,0,0,0,0,0,0,0,0.0026,0.003,0.0072,0.0062,0.0063,0.0061,0.0064,0.0084,0.0092,0.0076,0.0076,0.0079,0.0101,0.0108,0.0111,0.0142,0.0118,0.012,0.0121,0.0122,0.0196,0.0196,0,0,0,0,0,0,0.0024,0.0029,0.0071,0.0073,0.0043,0.0062,0.0066,0.0076,0.0092,0.0094,0.008,0.0079,0.0106,0.0109,0.0112,0.0145,0.012,0.0122,0.0123,0.0195,0.0196,0.0197,0,0,0,0,0,0,0.0022,0.0028,0.007,0.0051,0.0056,0.0064,0.0076,0.0077,0.0085,0.0095,0.0096,0.0086,0.0105,0.0109,0.0132,0.0146,0.0123,0.0124,0.0194,0.0195,0.0196,0.0211,0,0,0,0,0,0,0.0021,0.0027,0.0038,0.0051,0.0057,0.0091,0.0077,0.0078,0.0088,0.0087,0.0101,0.0102,0.0105,0.013,0.0134,0.0148,0.0126,0.0193,0.0194,0.0196,0.0209,0.0213,0.0215,0,0,0,0,0,0.0019,0.0041,0.0039,0.0044,0.0071,0.0092,0.0095,0.0098,0.0089,0.01,0.0106,0.0102,0.0143,0.0132,0.0137,0.0152,0.0192,0.0194,0.0196,0.0208,0.0212,0.0215,0,0,0,0,0,0,0.003,0.0043,0.004,0.0068,0.0079,0.0091,0.0105,0.0102,0.0116,0.0114,0.0116,0.0119,0.0143,0.0149,0.0137,0.0178,0.0166,0.0169,0.0174,0.0178,0.018,0.0179,0.0127,0,0,0,0,0,0.0036,0.0052,0.0062,0.0085,0.0091,0.0096,0.0106,0.0106,0.0118,0.0123,0.013,0.0142,0.0157,0.0167,0.0182,0.0209,0.0212,0.0221,0.0224,0.0227,0.023,0.0245,0.0249,0.0203,0.0203,0.0203,0,0,0.0048,0.0057,0.0067,0.0088,0.0096,0.0113,0.0101,0.0119,0.0131,0.0125,0.0148,0.0154,0.0166,0.0192,0.0203,0.0198,0.0243,0.0229,0.0231,0.0233,0.0247,0.0252,0.0256,0.0204,0.0204,0.0204,0,0,0.0079,0.0087,0.0107,0.0115,0.0128,0.0132,0.0136,0.0148,0.0152,0.0174,0.017,0.0184,0.0211,0.022,0.0228,0.026,0.0257,0.0264,0.0281,0.0295,0.0299,0.0302,0.0315,0.0319,0.0267,0.0267,0.0267,0,0.0092,0.0117,0.0118,0.0136,0.0145,0.014,0.016,0.0168,0.0185,0.0192,0.0184,0.0217,0.0225,0.0252,0.026,0.0266,0.0272,0.0264,0.0298,0.0302,0.0305,0.0317,0.0321,0.0268,0.0268,0.0268,0.0268,0,0.0134,0.0151,0.0165,0.0182,0.0192,0.0211,0.0214,0.0225,0.0223,0.0227,0.025,0.0259,0.0275,0.0281,0.0281,0.0308,0.0305,0.0298,0.0286,0.031,0.0321,0.0326,0.0269,0.0269,0.0269,0.0268,0,0,0.0175,0.019,0.0196,0.0203,0.0215,0.0229,0.0247,0.0262,0.0271,0.0282,0.0298,0.0319,0.0313,0.0322,0.0322,0.0334,0.036,0.0326,0.0326,0.0333,0.0391,0.0398,0.0403,0.0356,0.0357,0.0358,0.0391,0,0.0208,0.0241,0.0241,0.0272,0.0287,0.0281,0.0297,0.0306,0.031,0.0323,0.0326,0.0342,0.0332,0.0337,0.0349,0.0354,0.0372,0.0351,0.0372,0.0373,0.0371,0.0409,0.0416,0.0447,0.0395,0.0396,0.0396,0,0.0252,0.0264,0.0296,0.0306,0.0312,0.0327,0.0341,0.0353,0.0363,0.0365,0.0374,0.0371,0.039,0.0375,0.04,0.0387,0.0394,0.0398,0.0399,0.0403,0.0388,0.0415,0.0457,0.0462,0.0403,0.0402,0.0402,0,0.0281,0.0305,0.0327,0.0333,0.0345,0.0355,0.036,0.0369,0.0378,0.0389,0.0395,0.0409,0.0417,0.0427,0.0428,0.0417,0.0453,0.0439,0.0456,0.0456,0.0466,0.0465,0.0511,0.0467,0.0467,0.0467,0.0467,0,0.0319,0.0339,0.034,0.0354,0.0376,0.0375,0.0397,0.0401,0.0408,0.0423,0.0417,0.043,0.043,0.0443,0.0444,0.0465,0.0468,0.047,0.047,0.0472,0.0472,0.0479,0.0477,0.0468,0.0468,0.0468,0.0468,0,0.0356,0.0358,0.0382,0.039,0.0392,0.0408,0.0415,0.0428,0.043,0.0448,0.0452,0.0455,0.0471,0.0472,0.0489,0.049,0.0516,0.0512,0.0513,0.0513,0.053,0.0529,0.0583,0.0591,0.054,0.0541,0.0541,0,0.0382,0.0397,0.0407,0.0416,0.0421,0.0436,0.0445,0.0443,0.0453,0.0464,0.0476,0.049,0.0502,0.0527,0.0531,0.0544,0.0543,0.056,0.0545,0.0546,0.0545,0.0545,0.0547,0.0565,0.0565,0.0565,0.0566,0,0.0428,0.0427,0.044,0.0453,0.0464,0.0474,0.0484,0.0491,0.0491,0.0501,0.0517,0.0526,0.0544,0.0559,0.0571,0.0576,0.0571,0.057,0.0575,0.0578,0.0578,0.058,0.0523,0.057,0.0569,0.0569,0.0569,0.0569,0.0461,0.0474,0.0483,0.0497,0.0504,0.0512,0.0525,0.0528,0.0541,0.0555,0.0553,0.057,0.0578,0.0595,0.06,0.0614,0.0608,0.0614,0.0616,0.0619,0.0621,0.0574,0.0616,0.0615,0.0615,0.0615,0.0615,0,0.0508,0.0512,0.0525,0.0539,0.055,0.0542,0.0552,0.0562,0.0578,0.0585,0.0597,0.0614,0.0628,0.0632,0.0645,0.0655,0.0653,0.0659,0.0659,0.0661,0.0625,0.062,0.066,0.066,0.066,0.066,0.066,0.066,0.0533,0.0556,0.0556,0.058,0.0585,0.0602,0.0608,0.0616,0.0622,0.0642,0.0653,0.0655,0.0661,0.0675,0.0687,0.0687,0.0693,0.07,0.07,0.0668,0.0663,0.0659,0.0655,0.0701,0.0701,0.0735,0.0735,0.0736]},{"header":{"parameterUnit":"m.s-1","parameterCategory":1,"la1":30.2991,"la2":30.254,"lo1":-89.0895,"lo2":-89.0444,"dy":0.0017,"dx":0.0017,"nx":28,"ny":28,"refTime":"2023-10-06T09:00:00:Z","depth":0,"parameterNumber":3,"parameterNumberName":"V-component_of_WINDS"},"data":[0,0,0,0,0,0,0,0,0,0,0,0,0,0,0,0,0,0,0,0,0,0,0,0,0,0,0,0,0,0,0,0,0,0,0,0,0,0,0,0,0,0,0,0,0,0,0,0,0,0,0,0,0,0,0,0,0,0,0.3352,0.3352,0,0.335,0.335,0.335,0.3297,0.3295,0.3294,0.3293,0.3291,0.3292,0.3294,0,0,0,0,0,0,0,0,0,0,0,0,0,0.3309,0.331,0.3352,0.3352,0.3352,0.335,0.335,0.335,0.3297,0.3295,0.3294,0.3292,0.3291,0.3292,0.3294,0,0,0,0,0,0,0,0,0,0,0,0,0,0.3319,0.331,0.3352,0.3325,0.3323,0.335,0.335,0.335,0.3297,0.3295,0.3293,0.3291,0.329,0.3292,0.3294,0.3347,0,0,0.33,0.33,0,0,0,0,0,0,0,0,0.3319,0.3321,0.3329,0.3327,0.3324,0.3322,0.3334,0.3349,0.3298,0.3307,0.3293,0.329,0.3303,0.3304,0.3308,0.3347,0.3347,0.33,0.3301,0.3302,0.3302,0,0,0,0,0,0,0,0.3318,0.3321,0.3351,0.3329,0.3326,0.3313,0.3312,0.3337,0.3317,0.3306,0.3302,0.3303,0.3301,0.3306,0.3308,0.3347,0.33,0.3301,0.3303,0.3303,0.3431,0.3433,0,0,0,0,0,0,0.3321,0.3321,0.3351,0.3351,0.3316,0.3316,0.3315,0.3325,0.3316,0.3313,0.3304,0.33,0.3304,0.3305,0.3307,0.337,0.3302,0.3304,0.3305,0.3428,0.3431,0.3434,0,0,0,0,0,0,0.332,0.3324,0.3351,0.3335,0.3337,0.3319,0.333,0.3326,0.3331,0.3315,0.3311,0.3313,0.3302,0.3305,0.3338,0.3369,0.3304,0.3306,0.3426,0.3429,0.3432,0.3495,0,0,0,0,0,0,0.3319,0.3324,0.3344,0.3336,0.3338,0.3382,0.3332,0.3327,0.3334,0.3328,0.3322,0.3319,0.3301,0.3335,0.334,0.337,0.3308,0.3423,0.3427,0.3431,0.349,0.35,0.3509,0,0,0,0,0,0.3318,0.3362,0.3346,0.335,0.3363,0.3384,0.3385,0.3363,0.3337,0.3357,0.3347,0.332,0.3365,0.3339,0.3344,0.3375,0.3421,0.3426,0.3431,0.3486,0.3498,0.3509,0,0,0,0,0,0,0.3374,0.336,0.3342,0.3384,0.3386,0.3375,0.3399,0.3377,0.3386,0.338,0.3353,0.3352,0.339,0.3385,0.3357,0.3427,0.3388,0.3394,0.3428,0.344,0.3449,0.345,0.3309,0,0,0,0,0,0.3392,0.341,0.3397,0.3435,0.3437,0.3418,0.3426,0.341,0.341,0.341,0.3403,0.3404,0.3419,0.3429,0.3441,0.3489,0.3488,0.3513,0.3523,0.353,0.3536,0.3562,0.3574,0.345,0.345,0.345,0,0,0.3428,0.3422,0.3435,0.3446,0.3446,0.3466,0.3419,0.3442,0.3456,0.3413,0.3445,0.3439,0.3439,0.348,0.3498,0.3478,0.357,0.3537,0.3543,0.3545,0.3569,0.3581,0.3591,0.3454,0.3453,0.3453,0,0,0.3504,0.3501,0.3534,0.3534,0.3533,0.3521,0.3529,0.3521,0.3516,0.3547,0.3516,0.3533,0.3558,0.3559,0.3564,0.3641,0.3617,0.3646,0.3695,0.3721,0.3731,0.3739,0.3768,0.3779,0.3652,0.3652,0.3652,0,0.3549,0.3578,0.3553,0.3578,0.3585,0.3547,0.358,0.3581,0.3585,0.359,0.3567,0.3599,0.3596,0.3638,0.3657,0.3661,0.367,0.3647,0.3731,0.3739,0.3747,0.3774,0.3785,0.3655,0.3655,0.3655,0.3654,0,0.3633,0.3654,0.368,0.3685,0.3694,0.3723,0.3703,0.3715,0.3697,0.3687,0.372,0.3715,0.3726,0.3735,0.3717,0.3774,0.3762,0.3736,0.3696,0.3763,0.3788,0.3798,0.3661,0.3659,0.3658,0.3657,0,0,0.3745,0.3737,0.3747,0.3749,0.3746,0.3761,0.3789,0.38,0.3812,0.3815,0.3838,0.3861,0.3837,0.3842,0.3824,0.3847,0.391,0.3818,0.3817,0.3836,0.3974,0.3995,0.4007,0.3893,0.3895,0.3897,0.3974,0,0.3819,0.3866,0.3846,0.3895,0.3914,0.3879,0.3903,0.3904,0.3895,0.391,0.39,0.3917,0.3884,0.3887,0.3907,0.3898,0.3938,0.3892,0.3915,0.3917,0.3918,0.402,0.4042,0.4115,0.3984,0.3985,0.3987,0,0.3913,0.3921,0.3973,0.3967,0.3974,0.3996,0.4006,0.402,0.4021,0.4013,0.4019,0.3996,0.4023,0.3984,0.4021,0.3991,0.3999,0.3996,0.3998,0.4,0.3957,0.4026,0.4138,0.4149,0.4002,0.4,0.3999,0,0.3991,0.4015,0.4049,0.4052,0.4046,0.4062,0.4061,0.4059,0.4068,0.4076,0.4081,0.4092,0.4098,0.4107,0.4089,0.4061,0.4129,0.4088,0.4124,0.4125,0.4141,0.4141,0.4257,0.4145,0.4144,0.4144,0.4144,0,0.4077,0.411,0.4084,0.4105,0.4141,0.4117,0.4154,0.4148,0.4147,0.4167,0.4136,0.4156,0.4129,0.4146,0.4132,0.4165,0.4168,0.4163,0.4159,0.4167,0.4168,0.4173,0.4168,0.4147,0.4147,0.4146,0.4145,0,0.417,0.4154,0.4189,0.4181,0.418,0.4207,0.42,0.422,0.4209,0.4234,0.4239,0.4222,0.424,0.4223,0.4239,0.423,0.4276,0.4263,0.4276,0.4273,0.4311,0.4309,0.4436,0.4452,0.4328,0.4329,0.433,0,0.4227,0.4252,0.4247,0.4258,0.4258,0.4276,0.4285,0.4262,0.4273,0.4276,0.4295,0.4311,0.4322,0.4353,0.4343,0.4356,0.4344,0.4388,0.4346,0.4353,0.4347,0.4346,0.4349,0.4397,0.4399,0.44,0.4401,0,0.4329,0.432,0.4334,0.4346,0.4358,0.4366,0.4371,0.4382,0.4358,0.4372,0.439,0.4399,0.4417,0.4433,0.4443,0.4442,0.4418,0.4414,0.4423,0.4432,0.4439,0.4437,0.4301,0.4411,0.441,0.441,0.4409,0.4409,0.4407,0.4428,0.4428,0.4445,0.4447,0.4453,0.4471,0.4463,0.4478,0.4491,0.4477,0.45,0.45,0.4511,0.4513,0.4531,0.4512,0.4526,0.4529,0.4533,0.454,0.4435,0.4532,0.4532,0.4531,0.4531,0.4531,0,0.4509,0.4508,0.4523,0.4533,0.4546,0.4523,0.4528,0.4541,0.4562,0.4564,0.4576,0.4598,0.4614,0.4605,0.4619,0.4635,0.4625,0.464,0.4639,0.4639,0.4554,0.4546,0.4648,0.4648,0.4648,0.4648,0.4648,0.4648,0.4564,0.4599,0.459,0.4626,0.4624,0.4646,0.4652,0.4657,0.4659,0.4685,0.4699,0.4693,0.4691,0.4705,0.4719,0.4715,0.4723,0.4742,0.4735,0.4657,0.4645,0.4634,0.4626,0.4743,0.4743,0.4819,0.4819,0.482]}]]